Weather in Fukuyama

Japan     34°31′15″N   133°22′01″E
temp.,
°C
wind,
m/s
gust,
m/s
humid.,
%
clouds,
%
prec.,
mm/h
press.,
hPa
HPBL,
m
2 december, thu
thu200:00+3wsw28635 0.0 1019411
03:00+2w126950 0.0 102056
06:00+1nw11705 0.0 102041
09:00+5w13573 0.0 1021288
12:00+9wsw23485 0.0 10191283
15:00+9sw34520 0.0 10181095
18:00+5w13701 0.0 1020166
21:00+4nnw11737 0.0 102134
3 december, fri
fri300:00+6wsw006780 0.1 102053
03:00+4wnw22805 0.1 101930
06:00+4nw22888 0.1 101846
09:00+8wsw26712 0.1 1019412
12:00+10wsw58685 0.1 10171023
15:00+11wsw59628 0.2 10161224
18:00+8w297754 0.1 1017485
21:00+7wnw4107667 0.1 1017752
4 december, sat
sat400:00+5wnw4108397 0.0 1019689
03:00+4w410673 0.0 1019882
06:00+3wsw27735 0.0 1021363
09:00+6w4105857 0.0 10221384
12:00+8wnw495291 0.0 10221831
15:00+9wnw584741 0.0 10231777
18:00+5wsw23645 0.0 102688
21:00+4nw11705 0.0 102730
5 december, sun
sun500:00+3nnw22735 0.0 102839
03:00+3nnw21815 0.0 102833
06:00+2n22865 0.0 103038
09:00+6nne25643 0.0 1030604
12:00+9ene34505 0.0 10281154
15:00+10e34512 0.0 10271162
18:00+6ene25655 0.0 1028180
21:00+5n22760 0.0 102867
6 december, mon
mon600:00+4nnw22780 0.0 102845
03:00+4nnw21794 0.0 102729
06:00+4nnw217916 0.0 102632
09:00+7n126896 0.0 1027120
12:00+7nne1280100 0.5 102696
15:00+8ne1384100 0.7 1025150
18:00+8nne1291100 0.3 102559
21:00+8nne2190100 0.3 102439